#timestamp,LO_Frequency,Hit,StdDev 
1554026415.4,286047002.2,N
1554026435.2,286046999.7,N
1554026455.1,286047002.0,N
1554026456.0,286047002.0,N
1554026475.8,286046998.8,N
1554026495.7,286046998.9,N
1554026515.5,286046996.6,N
1554026535.3,286046998.7,N
1554026555.2,286046998.7,N
1554026575.0,286046998.3,N
1554026575.9,286046998.3,N
1554026595.7,286047001.0,N
1554026615.6,286047000.8,N
1554026635.4,286047001.1,N
1554026655.3,286046999.1,N
1554026675.1,286046999.0,N
1554026676.0,286046999.0,N
1554026695.8,286046996.7,N
1554026715.7,286046999.6,N
1554026735.5,286046999.0,N
1554026755.3,286046999.0,N
1554026775.2,286046999.3,N
1554026795.0,286047000.1,N
1554026795.9,286047000.1,N
1554026815.8,286047002.3,N
1554026835.6,286047002.8,N
1554026855.4,286046999.8,N
1554026875.3,286047000.4,N
1554026895.1,286047000.4,N
1554026915.9,286046998.5,N
1554026935.7,286047000.0,N
1554026955.5,286047002.7,N
1554026975.4,286047002.3,N
1554026995.2,286047000.4,N
1554027015.0,286047000.0,N
1554027015.9,286047000.0,N
1554027035.8,286047000.6,N
1554027055.6,286047000.8,N
1554027075.5,286047002.7,N
1554027095.3,286047000.0,N
1554027115.1,286047002.1,N
1554027135.9,286047004.2,Y
1554027155.7,286047004.0,P
1554027175.5,286047002.2,N
1554027195.4,286047000.6,N
1554027215.2,286047000.8,N
1554027235.1,286047001.2,N
1554027236.0,286047001.2,N
1554027255.8,286047000.9,N
1554027275.6,286046998.6,N
1554027295.5,286046997.6,N
1554027315.3,286046999.6,N
1554027335.1,286046999.4,N
1554027355.9,286046998.8,N
1554027375.7,286046997.1,N
1554027395.6,286046998.6,N
1554027415.4,286046998.1,N
1554027435.2,286047001.2,N
1554027455.1,286047001.1,N
1554027456.0,286047001.1,N
1554027475.8,286046998.1,N
1554027495.6,286046998.4,N
1554027515.5,286047000.7,N
1554027535.3,286047002.7,N
1554027555.2,286046999.7,N
1554027575.9,286046999.8,N
1554027595.7,286047000.3,N
1554027615.6,286047002.3,N
1554027635.4,286047001.1,N
1554027655.3,286047002.3,N
1554027675.1,286047002.4,N
1554027676.0,286047002.4,N
1554027695.8,286047002.8,N
1554027715.7,286047002.8,N
1554027735.5,286047000.3,N
1554027755.3,286047000.5,N
1554027775.2,286047000.5,N
1554027795.0,286046999.7,N
1554027795.9,286046999.7,N
1554027815.8,286047001.0,N
1554027835.6,286047000.9,N
1554027855.4,286047000.6,N
1554027875.3,286047002.3,N
1554027895.1,286047000.2,N
1554027915.8,286047001.8,N
1554027935.7,286047002.7,N
1554027955.5,286047001.0,N
1554027975.3,286047000.5,N
1554027995.2,286046999.8,N
1554028015.0,286047000.0,N
1554028015.9,286047000.0,N
1554028035.8,286047002.2,N
1554028055.6,286047002.7,N
1554028075.4,286047000.9,N
1554028095.3,286047001.7,N
1554028115.1,286047003.0,N
1554028135.9,286047004.4,Y
1554028155.7,286047000.3,P
1554028175.5,286047000.9,N
1554028195.4,286047002.2,P
1554028215.2,286047002.8,Y
1554028235.0,286046999.0,P
1554028236.0,286046999.0,N
1554028255.8,286046999.3,N
1554028275.6,286047000.9,N
1554028295.5,286046999.8,N
1554028315.3,286047002.6,N
1554028335.1,286047002.1,N
1554028355.9,286047002.2,N
1554028375.7,286047000.4,N
1554028395.7,286046998.2,N
1554028415.6,286047000.9,N
1554028435.4,286046998.1,N
1554028455.2,286046997.1,N
1554028475.1,286046997.5,N
1554028476.0,286046997.5,N
1554028495.8,286046997.5,N
1554028515.6,286046997.4,N
1554028535.5,286046995.0,N
1554028555.3,286046997.3,N
1554028575.2,286046995.3,N
1554028595.0,286046995.6,N
1554028595.9,286046995.6,N
1554028615.8,286046997.4,N
1554028635.6,286046995.3,N
1554028655.2,286046995.0,N
1554028675.1,286046995.6,N
1554028676.0,286046995.6,N
1554028695.8,286046997.1,N
1554028715.7,286046998.0,N
1554028735.5,286046995.2,N
1554028755.3,286046993.3,N
1554028775.2,286046995.6,N
1554028795.2,286046996.3,N
1554028815.7,286046996.3,N
1554028835.5,286046995.0,N
1554028855.4,286046995.3,N
1554028875.2,286046998.7,N
1554028895.0,286046998.1,N
1554028895.9,286046998.1,N
1554028915.8,286046996.9,N
1554028935.6,286046998.9,N
1554028955.5,286046996.9,N
1554028975.3,286046997.8,N
1554028995.1,286046999.1,N
1554029015.9,286046999.1,N
1554029035.7,286046998.6,N
1554029055.6,286046997.3,N
1554029075.4,286046997.8,N
1554029095.3,286046997.0,N
1554029115.1,286046999.1,N
1554029135.9,286046997.9,N
1554029155.7,286046995.3,Y
1554029175.6,286047000.6,P
1554029195.4,286046998.5,N
1554029215.2,286047001.0,N
1554029235.1,286047002.6,N
1554029236.0,286047002.6,N
1554029255.8,286047002.1,N
1554029275.7,286046999.8,N
1554029295.5,286047002.6,N
1554029315.3,286047002.3,N
1554029335.2,286047001.4,N
1554029355.9,286047001.8,N
1554029375.7,286047002.0,N
1554029395.6,286047002.7,N
1554029415.4,286046999.7,N
1554029435.2,286047001.8,N
1554029455.1,286047001.7,N
1554029456.0,286047001.7,N
1554029475.8,286047003.2,N
1554029495.7,286047003.6,N
1554029515.5,286047004.3,N
1554029535.4,286047002.1,N
1554029555.2,286047002.0,N
1554029575.0,286047001.5,N
1554029575.9,286047001.5,N
1554029595.8,286047002.0,N
1554029615.6,286047003.5,N
1554029635.4,286047003.5,N
1554029655.3,286047004.4,N
1554029675.9,286047001.6,N
1554029695.7,286046999.9,N
1554029715.6,286047000.3,N
1554029735.4,286047000.4,N
1554029755.2,286047000.0,N
1554029775.1,286047000.0,N
1554029776.0,286047000.0,N
1554029795.8,286047002.5,N
1554029815.6,286047001.6,N
1554029835.5,286047002.6,N
1554029855.3,286047002.4,N
1554029875.2,286047001.5,N
1554029895.0,286047001.7,N
1554029895.9,286047001.7,N
1554029915.7,286047004.0,Y
1554029935.6,286046998.3,P
1554029955.4,286046999.3,N
1554029975.3,286047000.0,N
1554029995.1,286047000.2,N
1554029996.0,286047000.2,N
